period_start,C,m1,H,J0,J1,J2,J3,J4,J5,JA,JB,JC,JD,JJ,JK,JN,#
2016-11-25 00:04:54,0.19,4.58,0.00,20.06,24.87,28.56,14.94,49.99,1025.37,2034.00,2019.33,2143.69,2411.85,599.95,606.97,38.45,0000 0000 0000 0000 000000
2016-11-25 00:09:55,0.16,4.59,0.00,20.05,24.87,28.57,14.89,50.01,1025.37,2034.01,2017.44,2142.34,2410.36,600.12,607.28,38.50,0000 0000 0000 0000 000000
2016-11-25 00:14:56,0.14,4.60,0.00,20.04,24.86,28.56,14.89,50.01,1025.39,2034.00,2015.70,2141.04,2408.94,600.09,607.31,38.55,0000 0000 0000 0000 000000
2016-11-25 00:19:58,0.15,4.61,0.00,20.02,24.85,28.59,14.85,50.15,1025.38,2034.00,2013.93,2139.90,2407.66,599.86,607.14,38.60,0000 0000 0000 0000 000000
2016-11-25 00:24:59,0.14,4.62,0.00,20.02,24.85,28.54,14.89,50.33,1025.39,2034.02,2012.37,2138.79,2406.41,599.77,607.03,38.65,0000 0000 0000 0000 000000
2016-11-25 00:30:00,0.16,4.62,0.00,20.03,24.85,28.56,14.94,50.34,1025.40,2034.03,2010.64,2137.61,2405.06,600.25,607.50,38.70,0000 0000 0000 0000 000000
2016-11-25 00:35:01,0.12,4.63,0.00,20.01,24.85,28.53,14.93,50.44,1025.40,2034.02,2009.10,2136.56,2403.79,600.35,607.58,38.75,0000 0000 0000 0000 000000
2016-11-25 00:40:03,0.14,4.64,0.00,20.01,24.84,28.53,14.86,50.47,1025.40,2034.01,2007.57,2135.45,2402.61,599.99,607.37,38.80,0000 0000 0000 0000 000000
2016-11-25 00:45:04,0.12,4.65,0.00,20.01,24.84,28.54,14.87,50.63,1025.37,2034.01,2006.15,2134.42,2401.36,600.07,607.43,38.85,0000 0000 0000 0000 000000
2016-11-25 00:50:05,0.13,4.65,0.00,20.00,24.83,28.54,14.86,50.62,1025.34,2034.01,2004.65,2133.30,2400.04,599.96,607.22,38.90,0000 0000 0000 0000 000000
2016-11-25 00:55:07,0.14,4.66,0.00,20.02,24.82,28.53,14.97,50.60,1025.35,2034.02,2003.19,2132.22,2398.72,600.04,607.28,38.95,0000 0000 0000 0000 000000
2016-11-25 01:00:08,0.13,4.67,0.00,20.01,24.82,28.51,14.91,50.46,1025.31,2034.02,2001.61,2131.15,2397.48,600.15,607.40,39.01,0000 0000 0000 0000 000000
2016-11-25 01:05:09,0.12,4.67,0.00,19.98,24.82,28.51,14.86,50.45,1025.30,2034.03,2000.13,2130.09,2396.29,599.83,607.14,39.06,0000 0000 0000 0000 000000
2016-11-25 01:10:11,0.13,4.68,0.00,19.98,24.82,28.48,14.97,50.58,1025.31,2034.03,1998.77,2129.18,2395.23,600.32,607.53,39.11,0000 0000 0000 0000 000000
2016-11-25 01:15:12,0.11,4.69,0.00,19.97,24.80,28.47,14.97,50.53,1025.39,2034.02,1997.49,2128.29,2394.20,600.26,607.66,39.16,0000 0000 0000 0000 000000
2016-11-25 01:20:14,0.11,4.69,0.00,19.97,24.80,28.51,14.92,50.60,1025.39,2034.05,1996.19,2127.46,2393.18,599.83,607.35,39.21,0000 0000 0000 0000 000000
2016-11-25 01:25:15,0.11,4.70,0.00,19.95,24.79,28.51,14.90,50.60,1025.40,2034.13,1994.96,2126.66,2392.31,600.08,607.49,39.26,0000 0000 0000 0000 000000
2016-11-25 01:30:16,0.11,4.70,0.00,19.93,24.77,28.50,14.89,50.71,1025.40,2034.18,1993.78,2125.85,2391.25,599.88,607.37,39.31,0000 0000 0000 0000 000000
2016-11-25 01:35:18,0.13,4.71,0.00,19.94,24.77,28.47,14.97,50.68,1025.39,2034.35,1992.51,2125.00,2390.30,600.43,607.89,39.36,0000 0000 0000 0000 000000
2016-11-25 01:40:19,0.11,4.72,0.00,19.93,24.76,28.45,14.95,50.67,1025.40,2034.43,1991.37,2124.13,2389.28,600.02,607.32,39.41,0000 0000 0000 0000 000000
2016-11-25 01:45:20,0.13,4.72,0.00,19.90,24.75,28.46,14.87,50.69,1025.33,2034.58,1990.16,2123.35,2388.41,599.99,607.39,39.46,0000 0000 0000 0000 000000
2016-11-25 01:50:21,0.10,4.73,0.00,19.89,24.75,28.44,14.90,50.75,1025.05,2034.70,1989.14,2122.65,2387.49,600.08,607.42,39.51,0000 0000 0000 0000 000000
2016-11-25 01:55:22,0.05,4.73,0.00,19.91,24.73,28.42,14.93,50.67,1024.95,2034.56,1988.09,2121.91,2386.51,600.30,607.50,39.56,0000 0000 0000 0000 000000
2016-11-25 02:00:24,0.12,4.74,0.00,19.92,24.72,28.40,14.83,50.64,1024.92,2034.66,1987.04,2121.08,2385.66,599.63,606.91,39.61,0000 0000 0000 0000 000000
2016-11-25 02:05:25,0.11,4.74,0.00,19.91,24.72,28.41,14.91,50.72,1024.92,2034.79,1986.06,2120.42,2384.84,599.88,607.12,39.66,0000 0000 0000 0000 000000
2016-11-25 02:10:26,0.10,4.75,0.00,19.89,24.70,28.38,14.90,50.77,1024.92,2034.81,1984.86,2119.70,2383.98,599.90,607.08,39.71,0000 0000 0000 0000 000000
2016-11-25 02:15:27,0.10,4.75,0.00,19.91,24.69,28.40,14.88,50.77,1024.92,2034.92,1983.70,2118.95,2383.05,600.00,607.28,39.76,0000 0000 0000 0000 000000
2016-11-25 02:20:29,0.10,4.76,0.00,19.90,24.67,28.35,14.88,50.68,1024.92,2034.97,1982.72,2118.11,2382.11,599.93,607.14,39.81,0000 0000 0000 0000 000000
2016-11-25 02:25:30,0.11,4.76,0.00,19.87,24.66,28.33,14.90,50.65,1024.92,2034.98,1981.51,2117.39,2381.28,600.10,607.47,39.86,0000 0000 0000 0000 000000
2016-11-25 02:30:31,0.09,4.77,0.00,19.88,24.65,28.33,14.85,50.66,1024.92,2034.99,1980.38,2116.69,2380.48,600.09,607.35,39.91,0000 0000 0000 0000 000000
2016-11-25 02:35:33,0.09,4.77,0.00,19.90,24.65,28.32,14.94,50.73,1024.93,2034.99,1979.12,2115.92,2379.55,600.18,607.49,39.97,0000 0000 0000 0000 000000
2016-11-25 02:40:34,0.10,4.78,0.00,19.86,24.63,28.34,14.95,50.67,1024.93,2034.99,1977.90,2115.06,2378.59,600.01,607.36,40.02,0000 0000 0000 0000 000000
2016-11-25 02:45:35,0.11,4.78,0.00,19.83,24.62,28.34,14.90,50.58,1024.94,2034.99,1976.81,2114.26,2377.65,599.86,607.33,40.07,0000 0000 0000 0000 000000
2016-11-25 02:50:36,0.10,4.79,0.00,19.84,24.62,28.32,14.87,50.67,1025.00,2034.99,1975.85,2113.49,2376.64,599.68,607.11,40.12,0000 0000 0000 0000 000000
2016-11-25 02:55:37,0.09,4.79,0.00,19.84,24.61,28.34,14.90,50.63,1025.05,2034.99,1974.76,2112.78,2375.77,599.97,607.31,40.17,0000 0000 0000 0000 000000
2016-11-25 03:00:39,0.10,4.80,0.00,19.84,24.60,28.34,14.82,50.64,1025.38,2034.99,1973.56,2111.97,2374.80,599.77,607.44,40.22,0000 0000 0000 0000 000000
2016-11-25 03:05:40,0.10,4.81,0.00,19.85,24.60,28.33,14.91,50.74,1025.32,2034.99,1972.46,2111.10,2373.96,600.13,607.72,40.27,0000 0000 0000 0000 000000
2016-11-25 03:10:41,0.09,4.81,0.00,19.85,24.60,28.31,14.90,50.83,1025.13,2035.00,1971.34,2110.66,2373.04,599.93,607.58,40.32,0000 0000 0000 0000 000000
2016-11-25 03:15:43,0.09,4.82,0.00,19.86,24.60,28.30,14.95,50.81,1025.10,2035.00,1970.22,2109.84,2372.08,600.06,607.58,40.37,0000 0000 0000 0000 000000
2016-11-25 03:20:44,0.10,4.82,0.00,19.85,24.58,28.28,14.91,50.83,1025.22,2035.00,1969.00,2109.03,2371.13,599.92,607.58,40.42,0000 0000 0000 0000 000000
2016-11-25 03:25:46,0.11,4.83,0.00,19.83,24.57,28.28,14.90,50.81,1025.28,2035.01,1967.88,2108.18,2370.24,599.79,607.34,40.47,0000 0000 0000 0000 000000
2016-11-25 03:30:47,0.11,4.83,0.00,19.82,24.57,28.31,14.93,50.91,1025.35,2035.00,1966.76,2107.37,2369.26,599.85,607.54,40.52,0000 0000 0000 0000 000000
2016-11-25 03:35:49,0.10,4.84,0.00,19.84,24.57,28.28,14.90,50.96,1025.39,2035.00,1965.63,2106.68,2368.38,600.13,607.73,40.57,0000 0000 0000 0000 000000
2016-11-25 03:40:50,0.09,4.84,0.00,19.82,24.55,28.28,14.92,50.86,1025.37,2035.01,1964.50,2105.93,2367.52,599.82,607.37,40.62,0000 0000 0000 0000 000000
2016-11-25 03:45:51,0.09,4.85,0.00,19.81,24.55,28.28,14.84,50.83,1025.30,2035.01,1963.38,2105.08,2366.80,599.91,607.56,40.67,0000 0000 0000 0000 000000
2016-11-25 03:50:52,0.10,4.85,0.00,19.82,24.55,28.26,14.93,50.82,1025.18,2035.01,1962.28,2104.39,2365.95,600.14,607.79,40.72,0000 0000 0000 0000 000000
2016-11-25 03:55:54,0.10,4.86,0.00,19.80,24.53,28.25,14.91,50.89,1025.05,2035.03,1961.26,2103.72,2365.06,600.13,607.72,40.77,0000 0000 0000 0000 000000
2016-11-25 04:00:55,0.08,4.86,0.00,19.80,24.52,28.23,14.87,50.84,1024.99,2035.02,1960.04,2102.94,2364.18,599.74,607.12,40.83,0000 0000 0000 0000 000000
2016-11-25 04:05:56,0.11,4.87,0.00,19.81,24.52,28.24,14.94,50.94,1025.34,2035.04,1958.98,2102.11,2363.29,599.96,607.70,40.88,0000 0000 0000 0000 000000
2016-11-25 04:10:57,0.11,4.87,0.00,19.80,24.51,28.23,14.93,50.83,1025.38,2035.10,1957.87,2101.45,2362.42,600.27,607.99,40.93,0000 0000 0000 0000 000000
2016-11-25 04:15:59,0.10,4.88,0.00,19.78,24.50,28.22,14.92,50.92,1025.18,2035.22,1956.82,2100.78,2361.59,599.91,607.58,40.98,0000 0000 0000 0000 000000
2016-11-25 04:21:00,0.10,4.88,0.00,19.80,24.50,28.21,14.95,50.92,1025.25,2035.28,1955.75,2100.00,2360.74,600.47,608.03,41.03,0000 0000 0000 0000 000000
2016-11-25 04:26:02,0.11,4.89,0.00,19.80,24.48,28.23,14.99,50.94,1025.22,2035.24,1954.55,2099.15,2359.77,600.21,607.81,41.08,0000 0000 0000 0000 000000
2016-11-25 04:31:03,0.10,4.90,0.00,19.79,24.47,28.20,14.93,50.88,1025.30,2035.19,1953.37,2098.33,2358.84,600.04,607.74,41.13,0000 0000 0000 0000 000000
2016-11-25 04:36:04,0.10,4.90,0.00,19.80,24.47,28.20,14.95,51.00,1025.35,2035.23,1952.17,2097.60,2357.95,600.05,607.65,41.18,0000 0000 0000 0000 000000
2016-11-25 04:41:05,0.13,4.91,0.00,19.80,24.47,28.21,14.94,50.98,1025.35,2035.47,1950.96,2096.87,2357.05,600.01,607.78,41.23,0000 0000 0000 0000 000000
2016-11-25 04:46:07,0.16,4.92,0.00,19.79,24.46,28.19,15.00,51.10,1025.29,2035.85,1949.72,2096.04,2356.12,600.41,608.08,41.28,0000 0000 0000 0000 000000
2016-11-25 04:51:08,0.12,4.92,0.00,19.80,24.45,28.20,14.95,51.08,1025.37,2035.92,1948.45,2095.16,2355.16,599.98,607.70,41.33,0000 0000 0000 0000 000000
2016-11-25 04:56:09,0.11,4.93,0.00,19.77,24.45,28.18,14.87,51.00,1025.19,2035.93,1947.23,2094.34,2354.22,600.05,607.73,41.38,0000 0000 0000 0000 000000
2016-11-25 05:01:10,0.12,4.93,0.00,19.77,24.45,28.17,14.90,50.90,1025.31,2035.97,1945.98,2093.47,2353.19,599.91,607.80,41.43,0000 0000 0000 0000 000000
2016-11-25 05:06:11,0.15,4.94,0.00,19.79,24.45,28.15,14.95,50.73,1025.27,2035.97,1944.51,2092.51,2351.87,600.02,607.59,41.48,0000 0000 0000 0000 000000
2016-11-25 05:11:12,0.16,4.95,0.00,19.77,24.45,28.17,14.92,50.83,1025.30,2035.96,1942.71,2091.16,2350.52,599.94,607.70,41.53,0000 0000 0000 0000 000000
2016-11-25 05:16:14,0.17,4.96,0.00,19.75,24.45,28.19,14.88,50.84,1025.36,2035.93,1940.91,2089.83,2348.95,600.13,607.99,41.58,0000 0000 0000 0000 000000
2016-11-25 05:21:15,0.17,4.97,0.00,19.75,24.45,28.18,14.99,50.97,1025.40,2035.96,1939.21,2088.66,2347.60,599.99,607.87,41.63,0000 0000 0000 0000 000000
2016-11-25 05:26:16,0.16,4.98,0.00,19.76,24.45,28.18,14.89,50.92,1025.40,2035.95,1937.38,2087.37,2346.11,599.79,607.73,41.69,0000 0000 0000 0000 000000
2016-11-25 05:31:18,0.10,4.98,0.00,19.76,24.44,28.18,14.93,51.02,1025.40,2035.96,1936.27,2086.55,2345.08,599.99,607.79,41.74,0000 0000 0000 0000 000000
2016-11-25 05:36:19,0.10,4.99,0.00,19.75,24.44,28.17,14.88,50.83,1025.40,2035.97,1935.01,2085.78,2344.12,599.95,607.85,41.79,0000 0000 0000 0000 000000
2016-11-25 05:41:21,0.11,4.99,0.00,19.74,24.43,28.16,14.85,50.96,1025.40,2035.98,1933.81,2084.96,2343.22,599.95,607.73,41.84,0000 0000 0000 0000 000000
2016-11-25 05:46:22,0.12,5.00,0.00,19.71,24.42,28.17,14.89,50.92,1025.40,2035.98,1932.54,2084.09,2342.25,599.81,607.72,41.89,0000 0000 0000 0000 000000
2016-11-25 05:51:23,0.12,5.00,0.00,19.74,24.42,28.17,14.98,51.04,1025.40,2035.98,1931.13,2083.16,2341.20,599.95,607.81,41.94,0000 0000 0000 0000 000000
2016-11-25 05:56:24,0.19,5.01,0.00,19.74,24.42,28.15,14.94,50.93,1025.39,2035.98,1929.34,2081.88,2339.68,599.94,607.80,41.99,0000 0000 0000 0000 000000
2016-11-25 06:01:25,0.16,5.02,0.00,19.73,24.42,28.17,14.94,51.04,1025.35,2035.98,1927.54,2080.65,2338.31,599.89,607.75,42.04,0000 0000 0000 0000 000000
2016-11-25 06:06:27,0.17,5.03,0.00,19.74,24.42,28.15,14.93,51.01,1025.32,2035.96,1925.75,2079.41,2336.85,599.93,607.76,42.09,0000 0000 0000 0000 000000
2016-11-25 06:11:28,0.15,5.04,0.00,19.72,24.42,28.15,14.97,51.07,1025.39,2035.98,1924.03,2078.19,2335.52,600.24,608.23,42.14,0000 0000 0000 0000 000000
2016-11-25 06:16:29,0.19,5.05,0.00,19.72,24.42,28.12,14.99,51.19,1025.33,2035.98,1922.18,2076.82,2333.89,600.45,608.18,42.19,0000 0000 0000 0000 000000
2016-11-25 06:21:30,0.16,5.06,0.00,19.71,24.41,28.14,14.89,51.17,1025.26,2035.98,1920.35,2075.59,2332.52,599.97,607.92,42.24,0000 0000 0000 0000 000000
2016-11-25 06:26:31,0.15,5.06,0.00,19.69,24.41,28.14,14.93,51.15,1025.11,2035.97,1918.72,2074.44,2331.20,599.99,607.70,42.29,0000 0000 0000 0000 000000
2016-11-25 06:31:33,0.16,5.07,0.00,19.71,24.40,28.15,14.96,51.19,1024.94,2035.99,1917.03,2073.27,2329.81,600.15,607.96,42.34,0000 0000 0000 0000 000000
2016-11-25 06:36:34,0.15,5.08,0.00,19.69,24.40,28.13,14.95,51.18,1024.97,2035.99,1915.38,2072.13,2328.54,600.03,607.64,42.39,0000 0000 0000 0000 000000
2016-11-25 06:41:35,0.16,5.09,0.00,19.68,24.40,28.13,14.95,51.22,1024.95,2035.98,1913.67,2070.90,2327.21,600.01,607.75,42.44,0000 0000 0000 0000 000000
2016-11-25 06:46:37,0.20,5.10,0.00,19.66,24.40,28.12,14.90,51.13,1024.96,2035.97,1911.79,2069.55,2325.56,600.08,607.89,42.49,0000 0000 0000 0000 000000
2016-11-25 06:51:38,0.18,5.11,0.00,19.69,24.40,28.11,14.92,51.15,1025.08,2035.99,1909.74,2068.14,2323.95,599.92,607.71,42.54,0000 0000 0000 0000 000000
2016-11-25 06:56:39,0.18,5.12,0.00,19.69,24.40,28.10,14.91,51.08,1025.10,2035.99,1907.91,2066.75,2322.33,600.11,607.92,42.59,0000 0000 0000 0000 000000
2016-11-25 07:01:40,0.20,5.13,0.00,19.68,24.39,28.11,14.93,51.08,1025.18,2035.99,1905.87,2065.29,2320.65,600.06,607.98,42.64,0000 0000 0000 0000 000000
2016-11-25 07:06:42,0.20,5.14,0.00,19.67,24.38,28.10,14.89,51.08,1025.35,2035.97,1903.66,2063.78,2318.97,599.70,607.71,42.70,0000 0000 0000 0000 000000
2016-11-25 07:11:43,0.19,5.15,0.00,19.67,24.37,28.11,14.86,51.13,1025.40,2035.99,1901.60,2062.39,2317.40,599.97,608.00,42.75,0000 0000 0000 0000 000000
2016-11-25 07:16:45,0.20,5.16,0.00,19.65,24.37,28.13,14.91,51.10,1025.40,2035.99,1899.53,2060.91,2315.77,599.89,607.76,42.80,0000 0000 0000 0000 000000
2016-11-25 07:21:46,0.18,5.17,0.00,19.65,24.37,28.07,14.82,50.94,1025.40,2035.99,1897.68,2059.62,2314.35,599.58,607.69,42.85,0000 0000 0000 0000 000000
2016-11-25 07:26:47,0.14,5.17,0.00,19.67,24.37,28.07,14.86,51.07,1025.40,2035.99,1896.07,2058.52,2312.95,599.53,607.55,42.90,0000 0000 0000 0000 000000
2016-11-25 07:31:48,0.40,5.19,0.00,19.65,24.37,28.09,14.97,51.25,1025.39,2035.99,1892.84,2055.98,2310.19,600.03,608.11,42.95,0000 0000 0000 0000 000000
2016-11-25 07:36:50,0.95,5.23,0.00,19.63,24.37,28.08,14.94,51.13,1025.40,2035.99,1884.78,2049.71,2303.31,599.97,608.10,43.00,0000 0000 0000 0000 000000
2016-11-25 07:41:51,1.09,5.28,0.00,19.66,24.37,28.06,14.95,51.18,1025.39,2035.98,1874.26,2041.65,2294.29,599.74,607.85,43.05,0000 0000 0000 0000 000000
2016-11-25 07:46:52,1.04,5.34,0.00,19.64,24.37,28.09,14.90,51.13,1025.40,2035.99,1864.03,2033.68,2285.58,599.86,607.98,43.10,0000 0000 0000 0000 000000
2016-11-25 07:51:53,0.56,5.37,0.00,19.63,24.37,28.08,14.94,51.24,1025.39,2035.99,1857.79,2028.79,2280.11,599.89,607.98,43.15,0000 0000 0000 0000 000000
2016-11-25 07:56:55,0.59,5.40,0.00,19.62,24.36,28.09,14.97,51.15,1025.40,2035.97,1852.39,2024.52,2275.39,599.87,607.92,43.20,0000 0000 0000 0000 000000
2016-11-25 08:01:56,0.54,5.43,1.00,19.63,24.36,28.09,14.90,51.17,1025.40,2035.99,1847.09,2020.49,2270.93,600.08,608.22,43.25,0000 0000 0000 0000 000000
2016-11-25 08:06:57,0.63,5.46,1.00,19.62,24.36,28.08,14.89,51.16,1025.40,2035.98,1841.42,2016.04,2266.02,599.58,607.69,43.30,0000 0000 0000 0000 000000
2016-11-25 08:11:59,0.42,5.49,1.00,19.62,24.35,28.09,14.89,51.27,1025.40,2035.99,1836.98,2012.53,2262.12,599.69,607.84,43.35,0000 0000 0000 0000 000000
2016-11-25 08:17:00,0.42,5.51,1.00,19.61,24.35,28.08,14.98,51.38,1025.40,2035.99,1833.23,2009.67,2258.93,599.70,607.90,43.40,0000 0000 0000 0000 000000
2016-11-25 08:22:01,0.44,5.53,1.00,19.62,24.35,28.09,14.99,51.27,1025.40,2035.97,1828.94,2006.31,2255.24,600.15,608.12,43.45,0000 0000 0000 0000 000000
2016-11-25 08:27:02,0.50,5.56,1.00,19.62,24.35,28.09,14.90,51.36,1025.41,2035.99,1824.27,2002.86,2251.47,600.07,608.18,43.50,0000 0000 0000 0000 000000
2016-11-25 08:32:04,0.54,5.58,0.00,19.61,24.35,28.06,14.95,51.37,1025.41,2035.99,1819.34,1999.11,2247.31,600.15,608.30,43.55,0000 0000 0000 0000 000000
2016-11-25 08:37:05,0.50,5.61,0.00,19.62,24.35,28.06,14.93,51.37,1025.41,2035.99,1814.53,1995.39,2243.17,600.03,608.17,43.61,0000 0000 0000 0000 000000
2016-11-25 08:42:06,0.47,5.63,0.00,19.61,24.35,28.07,14.90,51.31,1025.40,2035.98,1810.11,1991.94,2239.43,599.80,607.89,43.66,0000 0000 0000 0000 000000
2016-11-25 08:47:07,0.46,5.66,0.00,19.60,24.35,28.10,14.94,51.38,1025.40,2035.98,1805.78,1988.67,2235.88,599.91,608.14,43.71,0000 0000 0000 0000 000000
2016-11-25 08:52:09,0.45,5.68,0.00,19.59,24.35,28.03,14.91,51.48,1025.40,2035.97,1801.55,1985.41,2232.29,599.86,608.04,43.76,0000 0000 0000 0000 000000
2016-11-25 08:57:10,0.54,5.70,0.00,19.57,24.34,28.05,14.87,51.42,1025.40,2035.98,1796.84,1981.93,2228.20,599.87,607.97,43.81,0000 0000 0000 0000 000000
2016-11-25 09:02:11,0.59,5.73,0.00,19.59,24.33,28.06,15.04,51.46,1025.40,2035.98,1791.52,1977.79,2223.59,600.23,608.34,43.86,0000 0000 0000 0000 000000
2016-11-25 09:07:12,0.58,5.76,0.00,19.62,24.32,28.08,14.96,51.44,1025.40,2035.98,1786.23,1973.66,2219.03,600.10,608.25,43.91,0000 0000 0000 0000 000000
2016-11-25 09:12:13,1.19,5.80,0.00,19.60,24.32,28.06,14.93,51.39,1025.40,2035.99,1777.88,1966.66,2211.22,600.40,608.46,43.96,0000 0000 0000 0000 000000
2016-11-25 09:17:14,1.32,5.88,0.00,19.58,24.32,28.06,14.98,51.52,1025.41,2035.97,1766.27,1956.61,2199.94,600.05,608.20,44.01,0000 0000 0000 0000 000000
2016-11-25 09:22:16,1.24,5.94,0.00,19.60,24.32,28.02,14.91,51.35,1025.41,2035.98,1755.86,1947.62,2190.03,599.91,608.04,44.06,0000 0000 0000 0000 000000
2016-11-25 09:27:17,1.14,6.00,0.07,19.58,24.31,28.01,14.95,51.44,1025.42,2035.98,1746.24,1939.38,2180.83,600.06,608.27,44.11,0000 0000 0000 0000 000000
2016-11-25 09:32:18,0.95,6.05,1.00,19.59,24.30,28.01,14.85,51.39,1025.41,2035.97,1738.24,1932.49,2173.28,599.77,607.92,44.16,0000 0000 0000 0000 000000
2016-11-25 09:37:20,0.98,6.10,1.00,19.58,24.30,28.02,14.94,51.49,1025.42,2035.98,1730.33,1925.71,2165.77,600.03,608.17,44.21,0000 0000 0000 0000 000000
2016-11-25 09:42:21,0.71,6.15,1.00,19.59,24.30,28.04,14.94,51.44,1025.42,2035.99,1723.93,1920.19,2159.56,600.11,608.42,44.26,0000 0000 0000 0000 000000
2016-11-25 09:47:22,0.53,6.17,1.00,19.55,24.30,28.03,14.97,51.56,1025.43,2035.97,1719.36,1916.44,2155.36,600.17,608.47,44.31,0000 0000 0000 0000 000000
2016-11-25 09:52:23,0.71,6.21,1.00,19.56,24.30,28.03,14.91,51.58,1025.46,2035.97,1713.73,1911.76,2150.11,599.92,608.20,44.36,0000 0000 0000 0000 000000
2016-11-25 09:57:25,0.69,6.24,1.00,19.58,24.30,28.02,14.94,51.60,1025.47,2035.98,1708.08,1907.18,2145.03,600.03,608.31,44.41,0000 0000 0000 0000 000000
2016-11-25 10:02:26,0.69,6.28,1.00,19.55,24.29,28.03,14.91,51.70,1025.48,2035.98,1702.41,1902.52,2139.86,599.92,608.33,44.46,0000 0000 0000 0000 000000
2016-11-25 10:07:27,0.68,6.31,1.00,19.57,24.28,27.99,14.96,51.65,1025.47,2035.98,1696.91,1897.86,2134.68,599.84,608.12,44.51,0000 0000 0000 0000 000000
2016-11-25 10:12:29,0.65,6.34,1.00,19.57,24.28,27.99,14.88,51.64,1025.42,2035.98,1691.69,1893.46,2129.68,599.99,608.29,44.57,0000 0000 0000 0000 000000
2016-11-25 10:17:30,0.60,6.38,1.00,19.59,24.27,28.00,14.96,51.63,1025.41,2035.98,1686.73,1889.38,2125.15,599.89,608.07,44.62,0000 0000 0000 0000 000000
2016-11-25 10:22:31,0.58,6.41,1.00,19.58,24.27,28.00,14.92,51.63,1025.42,2035.98,1681.95,1885.57,2120.95,600.04,608.23,44.67,0000 0000 0000 0000 000000
2016-11-25 10:27:33,0.51,6.43,1.00,19.57,24.27,28.00,15.00,51.63,1025.41,2035.97,1677.71,1882.05,2117.03,600.22,608.45,44.72,0000 0000 0000 0000 000000
2016-11-25 10:32:34,0.52,6.46,1.00,19.57,24.27,27.99,14.96,51.73,1025.41,2035.97,1673.44,1878.64,2113.20,600.11,608.34,44.77,0000 0000 0000 0000 000000
2016-11-25 10:37:35,0.59,6.49,1.00,19.57,24.27,27.98,14.85,51.52,1025.41,2035.97,1668.69,1874.86,2109.14,599.85,608.14,44.82,0000 0000 0000 0000 000000
2016-11-25 10:42:37,0.58,6.52,1.00,19.57,24.27,27.97,14.93,51.63,1025.41,2035.97,1663.92,1871.02,2104.88,600.23,608.48,44.87,0000 0000 0000 0000 000000
2016-11-25 10:47:38,0.53,6.55,1.00,19.55,24.26,27.98,14.93,51.70,1025.41,2035.96,1659.64,1867.59,2100.97,599.87,608.13,44.92,0000 0000 0000 0000 000000
2016-11-25 10:52:40,0.61,6.58,1.00,19.54,24.25,28.00,14.93,51.65,1025.41,2035.99,1654.93,1863.81,2096.71,600.02,608.37,44.97,0000 0000 0000 0000 000000
2016-11-25 10:57:41,0.66,6.61,1.00,19.52,24.25,27.98,15.02,51.70,1025.41,2035.98,1649.83,1859.62,2092.04,600.14,608.55,45.02,0000 0000 0000 0000 000000
2016-11-25 11:02:43,0.58,6.64,1.00,19.55,24.25,27.97,14.92,51.66,1025.40,2035.99,1644.95,1855.75,2087.56,599.71,608.06,45.07,0000 0000 0000 0000 000000
2016-11-25 11:07:44,0.51,6.67,1.00,19.54,24.25,27.95,14.87,51.76,1025.40,2035.98,1640.87,1852.50,2083.76,599.88,608.23,45.12,0000 0000 0000 0000 000000
2016-11-25 11:12:45,0.48,6.69,1.00,19.54,24.24,27.96,14.98,51.72,1025.40,2035.99,1637.01,1849.40,2080.29,600.35,608.77,45.17,0000 0000 0000 0000 000000
2016-11-25 11:17:46,0.45,6.72,1.00,19.53,24.24,27.94,14.97,51.59,1025.40,2035.99,1633.53,1846.54,2077.08,600.27,608.50,45.22,0000 0000 0000 0000 000000
2016-11-25 11:22:48,0.44,6.74,1.00,19.55,24.24,27.96,14.93,51.75,1025.40,2035.99,1630.13,1843.76,2073.99,599.88,608.16,45.27,0000 0000 0000 0000 000000
2016-11-25 11:27:49,0.18,6.76,0.83,19.55,24.25,27.98,14.94,51.84,1025.40,2035.99,1628.22,1842.11,2072.04,599.93,608.39,45.32,0000 0000 0000 0000 000000
2016-11-25 11:32:50,0.16,6.77,0.00,19.54,24.25,27.97,15.00,51.82,1025.40,2035.99,1626.92,1841.10,2070.95,600.17,608.36,45.37,0000 0000 0000 0000 000000
2016-11-25 11:37:51,0.18,6.77,0.00,19.56,24.25,27.98,14.94,51.92,1025.38,2035.99,1625.61,1840.09,2069.73,599.89,608.20,45.43,0000 0000 0000 0000 000000
2016-11-25 11:42:52,0.16,6.78,0.00,19.57,24.26,27.99,14.90,51.76,1025.38,2035.99,1624.29,1839.00,2068.51,600.04,608.13,45.48,0000 0000 0000 0000 000000
2016-11-25 11:47:53,0.17,6.79,0.00,19.55,24.27,27.99,14.95,51.84,1025.35,2035.99,1622.88,1837.98,2067.37,600.14,608.36,45.53,0000 0000 0000 0000 000000
2016-11-25 11:52:54,0.17,6.80,0.00,19.55,24.27,28.01,14.93,51.80,1025.35,2035.98,1621.53,1836.93,2066.22,599.89,608.18,45.58,0000 0000 0000 0000 000000
2016-11-25 11:57:55,0.23,6.81,0.00,19.55,24.27,27.99,14.91,51.88,1025.32,2035.98,1619.85,1835.65,2064.75,599.75,607.96,45.63,0000 0000 0000 0000 000000
2016-11-25 12:02:56,0.29,6.82,0.00,19.57,24.27,27.98,14.89,51.88,1025.24,2035.98,1617.59,1833.90,2062.75,599.80,607.89,45.68,0000 0000 0000 0000 000000
2016-11-25 12:07:58,0.25,6.84,0.00,19.56,24.27,27.99,14.95,51.77,1025.19,2035.98,1615.49,1832.27,2060.74,599.87,607.94,45.73,0000 0000 0000 0000 000000
2016-11-25 12:12:59,0.12,6.85,0.00,19.55,24.29,28.04,14.94,51.73,1025.20,2035.98,1614.45,1831.39,2059.90,600.01,608.20,45.78,0000 0000 0000 0000 000000
2016-11-25 12:18:00,0.07,6.85,0.00,19.55,24.30,28.00,14.94,51.81,1025.17,2035.98,1613.65,1830.93,2059.09,600.12,608.49,45.83,0000 0000 0000 0000 000000
2016-11-25 12:23:01,0.11,6.86,0.00,19.55,24.30,28.03,14.88,51.87,1024.96,2035.97,1612.85,1830.12,2058.48,600.17,608.22,45.88,0000 0000 0000 0000 000000
2016-11-25 12:28:03,0.12,6.86,0.00,19.55,24.30,28.03,14.93,51.77,1024.93,2035.97,1611.80,1829.56,2057.74,599.94,607.94,45.93,0000 0000 0000 0000 000000
2016-11-25 12:33:04,0.17,6.87,0.00,19.58,24.30,28.02,14.91,51.72,1024.93,2035.97,1610.54,1828.59,2056.63,600.20,608.06,45.98,0000 0000 0000 0000 000000
2016-11-25 12:38:05,0.09,6.88,0.00,19.58,24.30,27.99,14.96,51.81,1024.93,2035.97,1609.57,1827.91,2055.78,600.50,608.43,46.03,0000 0000 0000 0000 000000
2016-11-25 12:43:06,0.10,6.88,0.00,19.59,24.30,28.02,14.98,52.02,1024.96,2035.95,1608.72,1827.10,2055.02,600.06,608.03,46.08,0000 0000 0000 0000 000000
2016-11-25 12:48:07,0.10,6.89,0.00,19.57,24.30,28.02,14.97,51.79,1024.93,2035.97,1607.88,1826.70,2054.21,600.05,608.00,46.13,0000 0000 0000 0000 000000
2016-11-25 12:53:09,0.09,6.89,0.00,19.60,24.30,28.01,14.93,51.76,1024.93,2035.99,1607.01,1826.02,2053.69,600.04,607.92,46.18,0000 0000 0000 0000 000000
2016-11-25 12:58:10,0.12,6.90,0.00,19.60,24.30,28.04,14.95,51.76,1024.92,2035.98,1606.09,1825.33,2052.99,600.21,608.04,46.23,0000 0000 0000 0000 000000